Location: ??? ???
(33.4974°N, 35.4618°E)
Time: 02:09:58
(UTC+00:00)

Meteor 2-8 Rocket - Pass Details

Date: 29 October 2020
Orbit: 937 x 957 km, 82.5° (Epoch: 25 November)

Event Time Altitude Azimuth Distance (km) Brightness Sun altitude
Rises 15:23:55 0° 181° (S) 3,594 7.6 -8.0°
Reaches altitude 10° 15:26:23 10° 180° (S) 2,656 6.9 -8.5°
Maximum altitude 15:32:27 80° 95° (E) 967 4.4 -9.7°
Drops below altitude 10° 15:38:35 10° 9° (N) 2,684 6.6 -11.0°
Sets 15:41:06 0° 8° (N) 3,636 7.3 -11.5°
